Weather History for Central Park, NY

Change the Weather History Date:

Thursday, November 14, 2013

  Actual Average Record
Temperature  
Mean Temperature 43 °F 48 °F  
Max Temperature 52 °F 55 °F 72 °F (1993)
Min Temperature 33 °F 42 °F 20 °F (1905)
Degree Days  
Heating Degree Days 22 17  
Month to date heating degree days 230 207  
Since 1 July heating degree days 453 520  
Cooling Degree Days 0 0  
Month to date cooling degree days 0 0  
Year to date cooling degree days 1271 1104  
Moisture  
Dew Point 15 °F    
Average Humidity 35    
Maximum Humidity 51    
Minimum Humidity 19    
Precipitation  
Precipitation 0.00 in 0.13 in 2.23 in (1972)
Month to date precipitation 0.29 1.82  
Year to date precipitation 38.61 43.74  
Snow  
Snow 0.00 in 0.00 in 1.00 in (1911)
Month to date snowfall T 0.0  
Since 1 July snowfall T 0.0  
Snow Depth 0.00 in    
Sea Level Pressure  
Sea Level Pressure 30.21 in    
Wind  
Wind Speed 8 mph (West)    
Max Wind Speed 17 mph    
Max Gust Speed 31 mph    
Visibility 10 miles    
Events      
T = Trace of Precipitation, MM = Missing Value Source: NWS Daily Summary

Daily Weather History Graph

Daily Weather History Graph

Search for Another Location

Airport:

Trip Planner

Search our weather history database for the weather conditions in past years. The results will help you decide how hot, cold, wet, or windy it might be!

Date:

Astronomy

Nov. 14, 2013 Rise Set
Actual Time 6:41 AM EST 4:38 PM EST
Civil Twilight 6:12 AM EST 5:07 PM EST
Nautical Twilight 5:39 AM EST 5:40 PM EST
Astronomical Twilight 5:07 AM EST 6:13 PM EST
Moon 2:59 PM EST (11/14) 3:33 AM EST (11/14)
Length of Visible Light 10h 55m
Length of Day
9h 56m
Waxing Gibbous, 91% of the Moon is Illuminated
Nov 14
Waxing Gibbous
Nov 17
Full
Nov 25
Last Quarter
Dec 2
New
Dec 9
First Quarter

Hourly Weather History & Observations

Time (EST) Temp. Windchill Dew Point Humidity Pressure Visibility Wind Dir Wind Speed Gust Speed Precip Events Conditions
12:51 AM 36.0 °F 30.3 °F 18.0 °F 48% 30.25 in 10.0 mi Variable 6.9 mph - N/A   Clear
1:51 AM 35.1 °F 31.0 °F 18.0 °F 50% 30.23 in 10.0 mi Variable 4.6 mph - N/A   Clear
2:51 AM 34.0 °F 28.8 °F 18.0 °F 52% 30.21 in 10.0 mi Variable 5.8 mph - N/A   Clear
3:51 AM 34.0 °F 27.2 °F 18.0 °F 52% 30.22 in 10.0 mi West 8.1 mph 23.0 mph N/A   Clear
4:51 AM 33.1 °F 27.7 °F 18.0 °F 54% 30.22 in 10.0 mi West 5.8 mph - N/A   Clear
5:51 AM 33.1 °F 26.9 °F 18.0 °F 54% 30.23 in 10.0 mi Variable 6.9 mph - N/A   Clear
6:51 AM 33.1 °F 27.7 °F 18.0 °F 54% 30.24 in 10.0 mi Variable 5.8 mph - N/A   Clear
7:51 AM 35.1 °F 25.5 °F 17.1 °F 48% 30.24 in 10.0 mi WSW 15.0 mph 31.1 mph N/A   Clear
8:51 AM 36.0 °F 28.5 °F 17.1 °F 46% 30.25 in 10.0 mi WSW 10.4 mph 24.2 mph N/A   Clear
9:51 AM 39.9 °F 33.4 °F 17.1 °F 40% 30.24 in 10.0 mi West 10.4 mph 17.3 mph N/A   Clear
10:51 AM 43.0 °F 36.4 °F 16.0 °F 34% 30.23 in 10.0 mi West 12.7 mph 20.7 mph N/A   Clear
11:51 AM 46.9 °F - 14.0 °F 27% 30.19 in 10.0 mi West 8.1 mph 18.4 mph N/A   Clear
12:51 PM 50.0 °F - 12.9 °F 23% 30.17 in 10.0 mi West 8.1 mph - N/A   Clear
1:51 PM 51.1 °F - 10.9 °F 20% 30.17 in 10.0 mi West 8.1 mph - N/A   Clear
2:51 PM 52.0 °F - 10.9 °F 19% 30.16 in 10.0 mi WSW 8.1 mph - N/A   Clear
3:51 PM 52.0 °F - 10.9 °F 19% 30.17 in 10.0 mi West 9.2 mph 17.3 mph N/A   Clear
4:51 PM 51.1 °F - 10.9 °F 20% 30.18 in 10.0 mi North - - N/A   Clear
5:51 PM 51.1 °F - 10.9 °F 20% 30.19 in 10.0 mi Variable 5.8 mph 19.6 mph N/A   Clear
6:51 PM 50.0 °F - 10.9 °F 21% 30.19 in 10.0 mi North - - N/A   Clear
7:51 PM 50.0 °F - 10.9 °F 21% 30.20 in 10.0 mi SW 9.2 mph 18.4 mph N/A   Clear
8:51 PM 48.9 °F - 14.0 °F 25% 30.19 in 10.0 mi WSW 9.2 mph - N/A   Clear
9:51 PM 48.0 °F - 15.1 °F 27% 30.20 in 10.0 mi Variable 5.8 mph - N/A   Clear
10:51 PM 48.0 °F - 16.0 °F 28% 30.20 in 10.0 mi North - - N/A   Clear
11:51 PM 46.0 °F 43.1 °F 19.0 °F 34% 30.20 in 10.0 mi Variable 5.8 mph - N/A   Clear